Weather History for Campeche, Mexico

Change the Weather History Date:

Tuesday, October 2, 2012

  Actual Average Record
Temperature  
Mean Temperature 80 °F -  
Max Temperature 87 °F 87 °F 93 °F (1998)
Min Temperature 73 °F 72 °F 66 °F (2007)
Cooling Degree Days 15    
Growing Degree Days 30 (Base 50)    
Moisture  
Dew Point 73 °F    
Average Humidity 78    
Maximum Humidity 94    
Minimum Humidity 57    
Precipitation  
Precipitation 0.00 in - - ()
Sea Level Pressure  
Sea Level Pressure 29.90 in    
Wind  
Wind Speed 4 mph ()    
Max Wind Speed 13 mph    
Max Gust Speed 23 mph    
Visibility 6.1 miles    
Events      
Averages and records for this station are not official NWS values.
T = Trace of Precipitation, MM = Missing Value Source: Averaged Metar Reports

Daily Weather History Graph

Daily Weather History Graph

Search for Another Location

Airport:

Trip Planner

Search our weather history database for the weather conditions in past years. The results will help you decide how hot, cold, wet, or windy it might be!

Date:

Astronomy

Oct. 02, 2012 Rise Set
Actual Time 6:53 AM CDT 6:48 PM CDT
Civil Twilight 6:31 AM CDT 7:10 PM CDT
Nautical Twilight 6:05 AM CDT 7:36 PM CDT
Astronomical Twilight 5:40 AM CDT 8:01 PM CDT
Moon 8:29 PM CDT (10/2) 8:55 AM CDT (10/2)
Length of Visible Light 12h 39m
Length of Day
11h 55m
Waning Gibbous, 94% of the Moon is Illuminated
Oct 2
Waning Gibbous
Oct 8
Last Quarter
Oct 15
New
Oct 21
First Quarter
Oct 29
Full

Hourly Weather History & Observations

Time (CDT) Temp. Heat Index Dew Point Humidity Pressure Visibility Wind Dir Wind Speed Gust Speed Precip Events Conditions
12:50 AM 79 °F - 75 °F 85% 29.83 in 4 mi NE 4.5 mph - -  
4:00 AM - - 75 °F %  in 4 mi Calm Calm - -  
5:12 AM 75.2 °F - 73.4 °F 94% 29.86 in 7.0 mi Calm Calm - N/A   Scattered Clouds
5:41 AM 75.2 °F - 73.4 °F 94% 29.87 in 7.0 mi Calm Calm - N/A   Scattered Clouds
6:45 AM 75.2 °F - 73.4 °F 94% 29.88 in 7.0 mi East 5.8 mph - N/A   Scattered Clouds
6:48 AM 74 °F - 73 °F 94% 29.88 in 6 mi Calm Calm - -   Partly Cloudy
7:55 AM 77.0 °F - 75.2 °F 94% 29.89 in 7.0 mi Calm Calm - N/A   Scattered Clouds
8:05 AM 77.0 °F - 75.2 °F 94% 29.89 in 7.0 mi Calm Calm - N/A   Scattered Clouds
8:45 AM 78.8 °F - 75.2 °F 89% 29.93 in 6.0 mi Calm Calm - N/A   Mostly Cloudy
9:50 AM 82 °F - 76 °F 76% 29.92 in 6 mi Calm Calm - -   Mostly Cloudy
9:50 AM 82.4 °F 89.5 °F 75.2 °F 79% 29.93 in 6.0 mi Calm Calm - N/A   Mostly Cloudy
10:49 AM 80.6 °F 86.2 °F 75.2 °F 84% 29.93 in 6.0 mi NE 11.5 mph - N/A   Mostly Cloudy
12:43 PM 82.4 °F 88.2 °F 73.4 °F 74% 29.91 in 6.0 mi NNW 9.2 mph - N/A   Scattered Clouds
12:50 PM 87 °F - 74 °F 57% 29.91 in 6 mi NNW 6.7 mph - -   Scattered Clouds
1:48 PM 82.4 °F 88.2 °F 73.4 °F 74% 29.88 in 6.0 mi North 11.5 mph - N/A   Scattered Clouds
2:42 PM 82.4 °F 88.2 °F 73.4 °F 74% 29.87 in 6.0 mi NNW 12.7 mph - N/A   Scattered Clouds
3:49 PM 82.4 °F 89.5 °F 75.2 °F 79% 29.85 in 6.0 mi NNW 11.5 mph 23.0 mph N/A   Scattered Clouds
3:50 PM 86 °F - 75 °F 62% 29.86 in 6 mi NNW 6.7 mph - -   Scattered Clouds
4:51 PM 82.4 °F 88.2 °F 73.4 °F 74% 29.86 in 6.0 mi NNW 11.5 mph 23.0 mph N/A   Scattered Clouds
5:41 PM 82.4 °F 88.2 °F 73.4 °F 74% 29.85 in 7.0 mi North 11.5 mph - N/A   Scattered Clouds
6:45 PM 82.4 °F 87.2 °F 71.6 °F 70% 29.89 in 7.0 mi North 11.5 mph 23.0 mph N/A   Scattered Clouds
6:48 PM 83 °F - 70 °F 57% 29.89 in 5 mi North 6.7 mph - -   Partly Cloudy
7:43 PM 82.4 °F 87.2 °F 71.6 °F 70% 29.90 in 7.0 mi North 11.5 mph - N/A   Scattered Clouds
8:44 PM 80.6 °F 84.6 °F 71.6 °F 74% 29.93 in 7.0 mi NNE 11.5 mph - N/A   Scattered Clouds
9:44 PM 78.8 °F - 71.6 °F 78% 29.97 in 7.0 mi NNE 11.5 mph - N/A   Mostly Cloudy
9:50 PM 80 °F - 70 °F 63% 29.98 in 4 mi NNE 2.2 mph - -   Mostly Cloudy
10:40 PM 78.8 °F - 71.6 °F 78% 29.99 in 7.0 mi NNE 11.5 mph - N/A   Mostly Cloudy